This is the latest recevied weather packets stored in our database for station/object KC1TLF-15. If no packets are shown the sender has not sent any weather packets the latest 10 day(s).
| Time | Temp. | Humidity | Pressure | Rain* | Wind** | Luminosity | Snow |
|---|---|---|---|---|---|---|---|
| 1777891271 | 8.89° C | 58% | 1018.2 hPa | 0 mm | 0.45 m/s, 298° | - | - |
| 1777890671 | 7.78° C | 66% | 1018.4 hPa | 0 mm | 0 m/s | - | - |
| 1777890071 | 7.78° C | 66% | 1018.2 hPa | 0 mm | 0 m/s | - | - |
| 1777889470 | 7.22° C | 68% | 1018.2 hPa | 0 mm | 0 m/s | - | - |
| 1777888871 | 6.67° C | 68% | 1018.3 hPa | 0 mm | 0 m/s | - | - |
| 1777888268 | 7.22° C | 66% | 1018.4 hPa | 0 mm | 0 m/s | - | - |
| 1777887669 | 7.22° C | 66% | 1018.2 hPa | 0 mm | 0 m/s | - | - |
| 1777887070 | 7.22° C | 65% | 1018.3 hPa | 0 mm | 0 m/s | - | - |
| 1777886470 | 7.22° C | 66% | 1018.4 hPa | 0 mm | 0 m/s | - | - |
| 1777885870 | 6.67° C | 68% | 1018.3 hPa | 0 mm | 0 m/s | - | - |
| 1777885270 | 6.67° C | 69% | 1018.2 hPa | 0 mm | 0 m/s | 0 W/m² | - |
| 1777884670 | 6.67° C | 68% | 1018.4 hPa | 0 mm | 0 m/s | 0 W/m² | - |
| 1777884069 | 6.67° C | 73% | 1018.6 hPa | 0 mm | 0 m/s | 0 W/m² | - |
| 1777883469 | 6.67° C | 67% | 1018.2 hPa | 0 mm | 0 m/s | 0 W/m² | - |
| 1777882869 | 6.67° C | 69% | 1018.1 hPa | 0 mm | 0 m/s | 0 W/m² | - |
| 1777882269 | 6.67° C | 70% | 1018.4 hPa | 0 mm | 0 m/s | 0 W/m² | - |
| 1777881671 | 6.67° C | 67% | 1018.3 hPa | 0 mm | 0 m/s | 0 W/m² | - |
| 1777881070 | 6.67° C | 65% | 1018.3 hPa | 0 mm | 0 m/s | 0 W/m² | - |
| 1777880469 | 6.67° C | 66% | 1018.2 hPa | 0 mm | 0.45 m/s, 300° | 0 W/m² | - |
| 1777879870 | 6.67° C | 71% | 1018.3 hPa | 0 mm | 0 m/s | 0 W/m² | - |
| 1777879271 | 6.67° C | 70% | 1018.1 hPa | 0 mm | 0 m/s | 0 W/m² | - |
| 1777878671 | 6.67° C | 66% | 1018.1 hPa | 0 mm | 0 m/s | 0 W/m² | - |
| 1777878070 | 6.67° C | 62% | 1018.3 hPa | 0 mm | 0 m/s | 0 W/m² | - |
| 1777877470 | 6.67° C | 63% | 1018.1 hPa | 0 mm | 0 m/s | 0 W/m² | - |
| 1777876870 | 6.67° C | 60% | 1018.2 hPa | 0 mm | 0 m/s | 0 W/m² | - |
* Rain latest hour (hover to see other rain measurements)
** Current wind speed in m/s (hover to see current wind gust speed)